Time,TemperatureF,DewpointF,PressureIn,WindDirection,WindDirectionDegrees,WindSpeedMPH,WindSpeedGustMPH,Humidity,HourlyPrecipIn,Conditions,Clouds,dailyrainin,SoftwareType,DateUTC
2013-10-09 00:01:00,51.3,46.2,30.21,ENE,57,4.0,7.0,83,0.00,,,0.00,meteohub,2013-10-09 04:01:00,
2013-10-09 00:02:00,51.3,46.2,30.21,NNE,32,5.0,7.0,83,0.00,,,0.00,meteohub,2013-10-09 04:02:00,
2013-10-09 00:07:00,51.1,46.0,30.21,NNE,13,7.0,10.0,83,0.00,,,0.00,meteohub,2013-10-09 04:07:00,
2013-10-09 00:12:00,51.3,46.0,30.22,NNE,25,2.0,11.0,82,0.00,,,0.00,meteohub,2013-10-09 04:12:00,
2013-10-09 00:17:00,51.1,46.0,30.21,NNE,32,3.0,11.0,83,0.00,,,0.00,meteohub,2013-10-09 04:17:00,
2013-10-09 00:22:00,50.9,45.9,30.21,NE,36,2.0,11.0,83,0.00,,,0.00,meteohub,2013-10-09 04:22:00,
2013-10-09 00:27:00,50.7,45.7,30.21,ENE,71,2.0,7.0,83,0.00,,,0.00,meteohub,2013-10-09 04:27:00,
2013-10-09 00:32:00,50.5,45.3,30.21,NNE,19,5.0,7.0,82,0.00,,,0.00,meteohub,2013-10-09 04:32:00,
2013-10-09 00:37:00,50.5,45.3,30.21,NNE,32,4.0,9.0,82,0.00,,,0.00,meteohub,2013-10-09 04:37:00,
2013-10-09 00:42:00,50.5,45.5,30.21,East,79,4.0,9.0,83,0.00,,,0.00,meteohub,2013-10-09 04:42:00,
2013-10-09 00:47:00,50.4,45.3,30.21,NNE,16,3.0,9.0,83,0.00,,,0.00,meteohub,2013-10-09 04:47:00,
2013-10-09 00:52:00,50.4,45.3,30.21,NE,36,4.0,8.0,83,0.00,,,0.00,meteohub,2013-10-09 04:52:00,
2013-10-09 00:57:00,50.4,45.3,30.21,NE,37,2.0,8.0,83,0.00,,,0.00,meteohub,2013-10-09 04:57:00,
2013-10-09 01:02:00,50.0,45.0,30.20,NNE,18,3.0,8.0,83,0.00,,,0.00,meteohub,2013-10-09 05:02:00,
2013-10-09 01:07:00,49.8,44.2,30.20,NE,53,4.0,8.0,81,0.00,,,0.00,meteohub,2013-10-09 05:07:00,
2013-10-09 01:12:00,50.2,44.6,30.20,NE,36,3.0,8.0,81,0.00,,,0.00,meteohub,2013-10-09 05:12:00,
2013-10-09 01:17:00,50.2,44.2,30.20,NNW,338,0.0,8.0,80,0.00,,,0.00,meteohub,2013-10-09 05:17:00,
2013-10-09 01:22:00,49.8,43.9,30.20,NE,39,3.0,7.0,80,0.00,,,0.00,meteohub,2013-10-09 05:22:00,
2013-10-09 01:27:00,49.8,43.5,30.20,NNE,19,3.0,7.0,79,0.00,,,0.00,meteohub,2013-10-09 05:27:00,
2013-10-09 01:32:00,49.6,43.7,30.20,NNE,29,2.0,9.0,80,0.00,,,0.00,meteohub,2013-10-09 05:32:00,
2013-10-09 01:37:00,49.6,43.7,30.20,NE,45,2.0,9.0,80,0.00,,,0.00,meteohub,2013-10-09 05:37:00,
2013-10-09 01:42:00,49.5,43.9,30.20,NE,47,1.0,9.0,81,0.00,,,0.00,meteohub,2013-10-09 05:42:00,
2013-10-09 01:47:00,49.5,43.9,30.20,East,82,0.0,7.0,81,0.00,,,0.00,meteohub,2013-10-09 05:47:00,
2013-10-09 01:52:00,49.3,44.1,30.20,ENE,77,0.0,6.0,82,0.00,,,0.00,meteohub,2013-10-09 05:52:00,
2013-10-09 01:57:00,49.3,44.1,30.20,NNE,28,4.0,5.0,82,0.00,,,0.00,meteohub,2013-10-09 05:57:00,
2013-10-09 02:02:00,49.1,43.5,30.20,NE,56,2.0,4.0,81,0.00,,,0.00,meteohub,2013-10-09 06:02:00,
2013-10-09 02:07:00,49.1,43.9,30.20,NNE,20,2.0,6.0,82,0.00,,,0.00,meteohub,2013-10-09 06:07:00,
2013-10-09 02:12:00,49.1,43.9,30.20,NE,37,0.0,6.0,82,0.00,,,0.00,meteohub,2013-10-09 06:12:00,
2013-10-09 02:17:00,48.7,43.5,30.20,NNE,25,3.0,6.0,82,0.00,,,0.00,meteohub,2013-10-09 06:17:00,
2013-10-09 02:22:00,48.7,43.5,30.20,North,7,1.0,6.0,82,0.00,,,0.00,meteohub,2013-10-09 06:22:00,
2013-10-09 02:27:00,48.7,43.5,30.20,NNE,20,2.0,4.0,82,0.00,,,0.00,meteohub,2013-10-09 06:27:00,
2013-10-09 02:32:00,48.9,43.7,30.20,NE,46,1.0,5.0,82,0.00,,,0.00,meteohub,2013-10-09 06:32:00,
2013-10-09 02:37:00,49.1,43.9,30.20,NE,44,4.0,6.0,82,0.00,,,0.00,meteohub,2013-10-09 06:37:00,
2013-10-09 02:42:00,49.3,43.7,30.21,North,6,0.0,6.0,81,0.00,,,0.00,meteohub,2013-10-09 06:42:00,
2013-10-09 02:47:00,49.3,43.7,30.21,ENE,70,3.0,5.0,81,0.00,,,0.00,meteohub,2013-10-09 06:47:00,
2013-10-09 02:52:00,49.3,43.7,30.20,NNE,22,3.0,8.0,81,0.00,,,0.00,meteohub,2013-10-09 06:52:00,
2013-10-09 02:57:00,49.3,43.7,30.20,NE,47,0.0,8.0,81,0.00,,,0.00,meteohub,2013-10-09 06:57:00,
2013-10-09 03:02:00,49.3,43.7,30.20,NE,40,6.0,8.0,81,0.00,,,0.00,meteohub,2013-10-09 07:02:00,
2013-10-09 03:07:00,49.1,43.5,30.20,NE,42,1.0,10.0,81,0.00,,,0.00,meteohub,2013-10-09 07:07:00,
2013-10-09 03:12:00,48.9,43.3,30.20,NNE,29,1.0,10.0,81,0.00,,,0.00,meteohub,2013-10-09 07:12:00,
2013-10-09 03:17:00,48.9,43.0,30.20,ENE,77,2.0,10.0,80,0.00,,,0.00,meteohub,2013-10-09 07:17:00,
2013-10-09 03:22:00,48.9,43.0,30.20,NNE,20,4.0,5.0,80,0.00,,,0.00,meteohub,2013-10-09 07:22:00,
2013-10-09 03:27:00,48.7,42.8,30.19,NNE,30,4.0,6.0,80,0.00,,,0.00,meteohub,2013-10-09 07:27:00,
2013-10-09 03:32:00,48.7,42.8,30.20,NNE,30,2.0,6.0,80,0.00,,,0.00,meteohub,2013-10-09 07:32:00,
2013-10-09 03:37:00,48.7,42.8,30.20,NNE,21,4.0,6.0,80,0.00,,,0.00,meteohub,2013-10-09 07:37:00,
2013-10-09 03:42:00,48.6,42.3,30.20,NNE,27,3.0,6.0,79,0.00,,,0.00,meteohub,2013-10-09 07:42:00,
2013-10-09 03:48:00,48.6,42.3,30.20,ENE,62,3.0,8.0,79,0.00,,,0.00,meteohub,2013-10-09 07:48:00,
2013-10-09 03:53:00,48.6,42.1,30.20,North,5,2.0,11.0,78,0.00,,,0.00,meteohub,2013-10-09 07:53:00,
2013-10-09 03:58:00,48.6,41.7,30.20,NE,44,2.0,11.0,77,0.00,,,0.00,meteohub,2013-10-09 07:58:00,
2013-10-09 04:03:00,48.6,41.4,30.20,NNE,33,1.0,11.0,76,0.00,,,0.00,meteohub,2013-10-09 08:03:00,
2013-10-09 04:08:00,48.4,41.2,30.20,NNE,33,0.0,10.0,76,0.00,,,0.00,meteohub,2013-10-09 08:08:00,
2013-10-09 04:13:00,48.4,41.2,30.20,NNE,33,0.0,10.0,76,0.00,,,0.00,meteohub,2013-10-09 08:13:00,
2013-10-09 04:18:00,48.0,40.5,30.20,NNE,27,1.0,8.0,75,0.00,,,0.00,meteohub,2013-10-09 08:18:00,
2013-10-09 04:23:00,48.0,40.5,30.20,ENE,77,4.0,6.0,75,0.00,,,0.00,meteohub,2013-10-09 08:23:00,
2013-10-09 04:28:00,47.8,40.3,30.20,East,89,2.0,6.0,75,0.00,,,0.00,meteohub,2013-10-09 08:28:00,
2013-10-09 04:33:00,47.7,40.5,30.20,North,8,3.0,6.0,76,0.00,,,0.00,meteohub,2013-10-09 08:33:00,
2013-10-09 04:38:00,47.7,40.5,30.21,NE,41,1.0,6.0,76,0.00,,,0.00,meteohub,2013-10-09 08:38:00,
2013-10-09 04:43:00,47.5,40.3,30.20,ENE,72,2.0,5.0,76,0.00,,,0.00,meteohub,2013-10-09 08:43:00,
2013-10-09 04:48:00,47.3,40.1,30.20,NE,44,4.0,5.0,76,0.00,,,0.00,meteohub,2013-10-09 08:48:00,
2013-10-09 04:53:00,47.3,40.1,30.21,North,0,0.0,6.0,76,0.00,,,0.00,meteohub,2013-10-09 08:53:00,
2013-10-09 04:58:00,47.1,39.9,30.21,NNE,30,0.0,8.0,76,0.00,,,0.00,meteohub,2013-10-09 08:58:00,
2013-10-09 05:03:00,47.1,39.9,30.21,NE,40,0.0,8.0,76,0.00,,,0.00,meteohub,2013-10-09 09:03:00,
2013-10-09 05:08:00,46.9,39.7,30.21,NE,36,2.0,7.0,76,0.00,,,0.00,meteohub,2013-10-09 09:08:00,
2013-10-09 05:13:00,47.1,39.9,30.21,NNE,12,3.0,5.0,76,0.00,,,0.00,meteohub,2013-10-09 09:13:00,
2013-10-09 05:18:00,47.1,39.9,30.21,NE,56,0.0,5.0,76,0.00,,,0.00,meteohub,2013-10-09 09:18:00,
2013-10-09 05:23:00,47.1,39.9,30.21,NNE,27,0.0,6.0,76,0.00,,,0.00,meteohub,2013-10-09 09:23:00,
2013-10-09 05:28:00,46.9,39.7,30.21,NNE,23,5.0,6.0,76,0.00,,,0.00,meteohub,2013-10-09 09:28:00,
2013-10-09 05:33:00,47.1,39.6,30.21,NE,47,2.0,8.0,75,0.00,,,0.00,meteohub,2013-10-09 09:33:00,
2013-10-09 05:38:00,46.9,39.7,30.21,NE,55,3.0,8.0,76,0.00,,,0.00,meteohub,2013-10-09 09:38:00,
2013-10-09 05:43:00,46.9,39.7,30.21,ENE,58,2.0,9.0,76,0.00,,,0.00,meteohub,2013-10-09 09:43:00,
2013-10-09 05:48:00,46.9,39.7,30.21,NE,54,4.0,9.0,76,0.00,,,0.00,meteohub,2013-10-09 09:48:00,
2013-10-09 05:53:00,47.1,39.6,30.21,NE,49,5.0,9.0,75,0.00,,,0.00,meteohub,2013-10-09 09:53:00,
2013-10-09 05:58:00,47.1,39.6,30.21,NNE,25,4.0,9.0,75,0.00,,,0.00,meteohub,2013-10-09 09:58:00,
2013-10-09 06:03:00,47.1,39.6,30.21,NNE,19,5.0,9.0,75,0.00,,,0.00,meteohub,2013-10-09 10:03:00,
2013-10-09 06:08:00,47.1,39.6,30.21,NE,39,5.0,9.0,75,0.00,,,0.00,meteohub,2013-10-09 10:08:00,
2013-10-09 06:13:00,46.9,39.7,30.21,North,7,4.0,9.0,76,0.00,,,0.00,meteohub,2013-10-09 10:13:00,
2013-10-09 06:18:00,46.9,39.4,30.21,NNE,26,4.0,8.0,75,0.00,,,0.00,meteohub,2013-10-09 10:18:00,
2013-10-09 06:23:00,46.9,39.4,30.21,NE,49,2.0,8.0,75,0.00,,,0.00,meteohub,2013-10-09 10:23:00,
2013-10-09 06:28:00,46.8,39.6,30.21,NE,56,1.0,7.0,76,0.00,,,0.00,meteohub,2013-10-09 10:28:00,
2013-10-09 06:33:00,46.8,39.6,30.21,NE,45,1.0,8.0,76,0.00,,,0.00,meteohub,2013-10-09 10:33:00,
2013-10-09 06:38:00,46.6,39.7,30.21,NE,48,3.0,9.0,77,0.00,,,0.00,meteohub,2013-10-09 10:38:00,
2013-10-09 06:43:00,46.8,39.6,30.21,NNE,23,5.0,9.0,76,0.00,,,0.00,meteohub,2013-10-09 10:43:00,
2013-10-09 06:48:00,46.8,38.8,30.20,NNE,29,8.0,9.0,74,0.00,,,0.00,meteohub,2013-10-09 10:48:00,
2013-10-09 06:53:00,46.9,39.0,30.20,ENE,77,3.0,12.0,74,0.00,,,0.00,meteohub,2013-10-09 10:53:00,
2013-10-09 06:58:00,46.9,39.4,30.20,NE,51,1.0,12.0,75,0.00,,,0.00,meteohub,2013-10-09 10:58:00,
2013-10-09 07:03:00,46.9,39.0,30.20,NNE,19,4.0,11.0,74,0.00,,,0.00,meteohub,2013-10-09 11:03:00,
2013-10-09 07:08:00,47.1,39.2,30.20,NE,56,3.0,10.0,74,0.00,,,0.00,meteohub,2013-10-09 11:08:00,
2013-10-09 07:13:00,47.1,39.2,30.21,NE,36,6.0,8.0,74,0.00,,,0.00,meteohub,2013-10-09 11:13:00,
2013-10-09 07:18:00,47.1,39.2,30.21,NE,53,5.0,9.0,74,0.00,,,0.00,meteohub,2013-10-09 11:18:00,
2013-10-09 07:23:00,46.9,39.4,30.21,NW,321,0.0,9.0,75,0.00,,,0.00,meteohub,2013-10-09 11:23:00,
2013-10-09 07:28:00,46.8,38.8,30.21,West,277,0.0,7.0,74,0.00,,,0.00,meteohub,2013-10-09 11:28:00,
2013-10-09 07:33:00,46.6,39.4,30.21,NNW,333,1.0,7.0,76,0.00,,,0.00,meteohub,2013-10-09 11:33:00,
2013-10-09 07:38:00,46.6,39.0,30.21,NE,41,2.0,11.0,75,0.00,,,0.00,meteohub,2013-10-09 11:38:00,
2013-10-09 07:43:00,46.8,38.8,30.21,NE,47,5.0,11.0,74,0.00,,,0.00,meteohub,2013-10-09 11:43:00,
2013-10-09 07:49:00,46.9,38.7,30.21,NNE,27,3.0,11.0,73,0.00,,,0.00,meteohub,2013-10-09 11:49:00,
2013-10-09 07:54:00,47.1,38.5,30.22,East,88,0.0,9.0,72,0.00,,,0.00,meteohub,2013-10-09 11:54:00,
2013-10-09 07:59:00,47.5,38.5,30.22,NNE,27,0.0,9.0,71,0.00,,,0.00,meteohub,2013-10-09 11:59:00,
2013-10-09 08:04:00,47.5,38.8,30.22,NE,55,0.0,9.0,72,0.00,,,0.00,meteohub,2013-10-09 12:04:00,
2013-10-09 08:09:00,47.5,38.8,30.22,NNE,13,0.0,9.0,72,0.00,,,0.00,meteohub,2013-10-09 12:09:00,
2013-10-09 08:14:00,47.7,38.7,30.22,NNW,342,1.0,9.0,71,0.00,,,0.00,meteohub,2013-10-09 12:14:00,
2013-10-09 08:19:00,47.8,38.5,30.22,NE,41,2.0,13.0,70,0.00,,,0.00,meteohub,2013-10-09 12:19:00,
2013-10-09 08:24:00,48.0,38.7,30.22,ENE,72,1.0,13.0,70,0.00,,,0.00,meteohub,2013-10-09 12:24:00,
2013-10-09 08:30:00,48.0,39.4,30.22,NE,36,2.0,13.0,72,0.00,,,0.00,meteohub,2013-10-09 12:30:00,
2013-10-09 08:35:00,48.0,39.4,30.22,NNE,25,2.0,10.0,72,0.00,,,0.00,meteohub,2013-10-09 12:35:00,
2013-10-09 08:40:00,48.0,39.0,30.22,NE,53,8.0,10.0,71,0.00,,,0.00,meteohub,2013-10-09 12:40:00,
2013-10-09 08:45:00,48.4,39.4,30.22,NNE,16,3.0,9.0,71,0.00,,,0.00,meteohub,2013-10-09 12:45:00,
2013-10-09 08:50:00,48.6,39.6,30.22,ENE,67,6.0,9.0,71,0.00,,,0.00,meteohub,2013-10-09 12:50:00,
2013-10-09 08:55:00,48.9,39.9,30.23,NE,53,5.0,9.0,71,0.00,,,0.00,meteohub,2013-10-09 12:55:00,
2013-10-09 09:00:00,49.3,39.9,30.23,NNE,30,6.0,10.0,70,0.00,,,0.00,meteohub,2013-10-09 13:00:00,
2013-10-09 09:05:00,49.6,40.3,30.23,NE,53,5.0,10.0,70,0.00,,,0.00,meteohub,2013-10-09 13:05:00,
2013-10-09 09:10:00,50.2,40.5,30.23,NNE,13,4.0,10.0,69,0.00,,,0.00,meteohub,2013-10-09 13:10:00,
2013-10-09 09:15:00,50.4,40.6,30.23,NE,44,10.0,10.0,69,0.00,,,0.00,meteohub,2013-10-09 13:15:00,
2013-10-09 09:20:00,50.5,40.5,30.23,NNE,20,4.0,9.0,68,0.00,,,0.00,meteohub,2013-10-09 13:20:00,
2013-10-09 09:25:00,50.9,40.6,30.23,North,9,9.0,11.0,68,0.00,,,0.00,meteohub,2013-10-09 13:25:00,
2013-10-09 09:30:00,51.3,41.4,30.24,NNE,23,0.0,11.0,69,0.00,,,0.00,meteohub,2013-10-09 13:30:00,
2013-10-09 09:35:00,51.4,41.2,30.24,NNE,23,5.0,10.0,68,0.00,,,0.00,meteohub,2013-10-09 13:35:00,
2013-10-09 09:40:00,51.8,41.2,30.24,North,359,3.0,10.0,67,0.00,,,0.00,meteohub,2013-10-09 13:40:00,
2013-10-09 09:45:00,52.0,41.0,30.24,NE,53,6.0,13.0,66,0.00,,,0.00,meteohub,2013-10-09 13:45:00,
2013-10-09 09:50:00,52.2,40.3,30.24,NW,318,3.0,13.0,64,0.00,,,0.00,meteohub,2013-10-09 13:50:00,
2013-10-09 09:55:00,52.2,39.6,30.25,NNE,33,11.0,13.0,62,0.00,,,0.00,meteohub,2013-10-09 13:55:00,
2013-10-09 10:00:00,52.3,40.1,30.24,NNE,20,10.0,14.0,63,0.00,,,0.00,meteohub,2013-10-09 14:00:00,
2013-10-09 10:05:00,52.5,40.3,30.25,North,355,8.0,14.0,63,0.00,,,0.00,meteohub,2013-10-09 14:05:00,
2013-10-09 10:10:00,52.5,39.9,30.25,NNE,20,2.0,14.0,62,0.00,,,0.00,meteohub,2013-10-09 14:10:00,
2013-10-09 10:15:00,52.9,39.7,30.25,NNE,18,11.0,13.0,61,0.00,,,0.00,meteohub,2013-10-09 14:15:00,
2013-10-09 10:20:00,53.1,40.8,30.25,NNE,29,7.0,14.0,63,0.00,,,0.00,meteohub,2013-10-09 14:20:00,
2013-10-09 10:25:00,53.4,40.3,30.25,NE,52,7.0,14.0,61,0.00,,,0.00,meteohub,2013-10-09 14:25:00,
2013-10-09 10:30:00,53.8,40.6,30.25,NNE,15,5.0,14.0,61,0.00,,,0.00,meteohub,2013-10-09 14:30:00,
2013-10-09 10:35:00,54.0,40.5,30.25,ENE,60,8.0,14.0,60,0.00,,,0.00,meteohub,2013-10-09 14:35:00,
2013-10-09 10:40:00,54.1,41.0,30.25,NE,36,6.0,14.0,61,0.00,,,0.00,meteohub,2013-10-09 14:40:00,
2013-10-09 10:45:00,54.5,41.7,30.25,NNE,22,3.0,14.0,62,0.00,,,0.00,meteohub,2013-10-09 14:45:00,
2013-10-09 10:50:00,54.9,42.1,30.25,ENE,61,7.0,11.0,62,0.00,,,0.00,meteohub,2013-10-09 14:50:00,
2013-10-09 10:55:00,55.2,42.1,30.25,NNE,29,9.0,10.0,61,0.00,,,0.00,meteohub,2013-10-09 14:55:00,
2013-10-09 11:00:00,55.6,42.8,30.25,NE,49,4.0,10.0,62,0.00,,,0.00,meteohub,2013-10-09 15:00:00,
2013-10-09 11:05:00,55.9,42.6,30.25,ENE,69,2.0,10.0,61,0.00,,,0.00,meteohub,2013-10-09 15:05:00,
2013-10-09 11:10:00,56.3,43.0,30.25,East,84,3.0,11.0,61,0.00,,,0.00,meteohub,2013-10-09 15:10:00,
2013-10-09 11:15:00,56.7,43.3,30.24,North,6,1.0,11.0,61,0.00,,,0.00,meteohub,2013-10-09 15:15:00,
2013-10-09 11:20:00,57.0,43.3,30.25,NE,46,3.0,11.0,60,0.00,,,0.00,meteohub,2013-10-09 15:20:00,
2013-10-09 11:25:00,57.0,43.3,30.24,North,351,0.0,10.0,60,0.00,,,0.00,meteohub,2013-10-09 15:25:00,
2013-10-09 11:30:00,57.2,43.5,30.24,ESE,102,5.0,10.0,60,0.00,,,0.00,meteohub,2013-10-09 15:30:00,
2013-10-09 11:35:00,57.4,44.1,30.24,ENE,68,3.0,11.0,61,0.00,,,0.00,meteohub,2013-10-09 15:35:00,
2013-10-09 11:40:00,57.7,43.5,30.24,ENE,65,8.0,11.0,59,0.00,,,0.00,meteohub,2013-10-09 15:40:00,
2013-10-09 11:45:00,57.7,43.5,30.24,North,352,3.0,10.0,59,0.00,,,0.00,meteohub,2013-10-09 15:45:00,
2013-10-09 11:50:00,57.7,43.5,30.24,ENE,74,1.0,12.0,59,0.00,,,0.00,meteohub,2013-10-09 15:50:00,
2013-10-09 11:55:00,57.9,44.1,30.23,NE,44,4.0,12.0,60,0.00,,,0.00,meteohub,2013-10-09 15:55:00,
2013-10-09 12:00:00,58.5,44.2,30.23,NE,44,2.0,10.0,59,0.00,,,0.00,meteohub,2013-10-09 16:00:00,
2013-10-09 12:05:00,58.6,44.8,30.23,NNE,30,3.0,10.0,60,0.00,,,0.00,meteohub,2013-10-09 16:05:00,
2013-10-09 12:10:00,59.2,44.8,30.23,ENE,58,4.0,11.0,59,0.00,,,0.00,meteohub,2013-10-09 16:10:00,
2013-10-09 12:15:00,59.2,45.3,30.23,NE,44,4.0,11.0,60,0.00,,,0.00,meteohub,2013-10-09 16:15:00,
2013-10-09 12:21:00,59.7,46.2,30.23,NNE,20,1.0,8.0,61,0.00,,,0.00,meteohub,2013-10-09 16:21:00,
2013-10-09 12:26:00,60.1,46.6,30.22,NNE,16,4.0,7.0,61,0.00,,,0.00,meteohub,2013-10-09 16:26:00,
2013-10-09 12:31:00,60.3,46.8,30.22,ENE,65,2.0,10.0,61,0.00,,,0.00,meteohub,2013-10-09 16:31:00,
2013-10-09 12:36:00,60.6,46.6,30.22,NNE,30,4.0,10.0,60,0.00,,,0.00,meteohub,2013-10-09 16:36:00,
2013-10-09 12:41:00,61.0,46.9,30.22,NNE,27,3.0,10.0,60,0.00,,,0.00,meteohub,2013-10-09 16:41:00,
2013-10-09 12:46:00,61.2,47.7,30.22,ENE,72,1.0,8.0,61,0.00,,,0.00,meteohub,2013-10-09 16:46:00,
2013-10-09 12:51:00,61.7,48.2,30.21,NNE,27,2.0,8.0,61,0.00,,,0.00,meteohub,2013-10-09 16:51:00,
2013-10-09 12:56:00,62.2,48.6,30.21,NE,41,1.0,6.0,61,0.00,,,0.00,meteohub,2013-10-09 16:56:00,
2013-10-09 13:01:00,62.4,48.7,30.21,East,89,4.0,6.0,61,0.00,,,0.00,meteohub,2013-10-09 17:01:00,
2013-10-09 13:06:00,62.8,49.1,30.21,WNW,297,1.0,6.0,61,0.00,,,0.00,meteohub,2013-10-09 17:06:00,
2013-10-09 13:11:00,63.0,48.9,30.21,East,84,0.0,6.0,60,0.00,,,0.00,meteohub,2013-10-09 17:11:00,
2013-10-09 13:16:00,63.0,49.3,30.20,NW,316,0.0,6.0,61,0.00,,,0.00,meteohub,2013-10-09 17:16:00,
2013-10-09 13:21:00,63.1,49.5,30.20,NNE,27,4.0,7.0,61,0.00,,,0.00,meteohub,2013-10-09 17:21:00,
2013-10-09 13:26:00,63.3,49.6,30.19,NE,41,3.0,7.0,61,0.00,,,0.00,meteohub,2013-10-09 17:26:00,
2013-10-09 13:31:00,63.7,50.0,30.19,East,92,1.0,8.0,61,0.00,,,0.00,meteohub,2013-10-09 17:31:00,
2013-10-09 13:36:00,63.7,50.0,30.19,NE,36,0.0,8.0,61,0.00,,,0.00,meteohub,2013-10-09 17:36:00,
2013-10-09 13:41:00,63.9,49.6,30.19,ENE,63,1.0,8.0,60,0.00,,,0.00,meteohub,2013-10-09 17:41:00,
2013-10-09 13:46:00,63.9,49.6,30.19,NE,53,3.0,8.0,60,0.00,,,0.00,meteohub,2013-10-09 17:46:00,
2013-10-09 13:51:00,63.9,50.2,30.18,ESE,117,3.0,8.0,61,0.00,,,0.00,meteohub,2013-10-09 17:51:00,
2013-10-09 13:56:00,64.2,50.9,30.18,NW,324,1.0,8.0,62,0.00,,,0.00,meteohub,2013-10-09 17:56:00,
2013-10-09 14:01:00,64.2,50.5,30.17,ENE,59,2.0,8.0,61,0.00,,,0.00,meteohub,2013-10-09 18:01:00,
2013-10-09 14:06:00,64.4,50.2,30.18,North,5,0.0,8.0,60,0.00,,,0.00,meteohub,2013-10-09 18:06:00,
2013-10-09 14:11:00,64.4,51.1,30.17,ENE,77,5.0,8.0,62,0.00,,,0.00,meteohub,2013-10-09 18:11:00,
2013-10-09 14:16:00,64.4,50.2,30.17,NW,313,0.0,8.0,60,0.00,,,0.00,meteohub,2013-10-09 18:16:00,
2013-10-09 14:21:00,64.6,50.9,30.17,NNE,26,5.0,8.0,61,0.00,,,0.00,meteohub,2013-10-09 18:21:00,
2013-10-09 14:26:00,64.6,50.9,30.17,ENE,72,5.0,9.0,61,0.00,,,0.00,meteohub,2013-10-09 18:26:00,
2013-10-09 14:31:00,64.2,50.5,30.17,North,356,0.0,9.0,61,0.00,,,0.00,meteohub,2013-10-09 18:31:00,
2013-10-09 14:36:00,64.6,50.9,30.17,NE,39,5.0,9.0,61,0.00,,,0.00,meteohub,2013-10-09 18:36:00,
2013-10-09 14:41:00,64.6,50.9,30.17,NE,39,1.0,7.0,61,0.00,,,0.00,meteohub,2013-10-09 18:41:00,
2013-10-09 14:46:00,64.8,51.1,30.16,NNE,30,0.0,12.0,61,0.00,,,0.00,meteohub,2013-10-09 18:46:00,
2013-10-09 14:51:00,64.8,51.1,30.16,SE,136,0.0,12.0,61,0.00,,,0.00,meteohub,2013-10-09 18:51:00,
2013-10-09 14:56:00,64.8,50.5,30.16,East,81,3.0,12.0,60,0.00,,,0.00,meteohub,2013-10-09 18:56:00,
2013-10-09 15:01:00,64.9,51.1,30.16,NW,311,1.0,8.0,61,0.00,,,0.00,meteohub,2013-10-09 19:01:00,
2013-10-09 15:06:00,64.9,51.1,30.16,NE,56,5.0,8.0,61,0.00,,,0.00,meteohub,2013-10-09 19:06:00,
2013-10-09 15:11:00,64.9,51.6,30.16,North,11,0.0,7.0,62,0.00,,,0.00,meteohub,2013-10-09 19:11:00,
2013-10-09 15:16:00,65.1,51.8,30.16,NNE,20,8.0,9.0,62,0.00,,,0.00,meteohub,2013-10-09 19:16:00,
2013-10-09 15:21:00,64.9,51.1,30.15,NNW,338,0.0,10.0,61,0.00,,,0.00,meteohub,2013-10-09 19:21:00,
2013-10-09 15:27:00,64.9,51.1,30.15,NE,48,3.0,10.0,61,0.00,,,0.00,meteohub,2013-10-09 19:27:00,
2013-10-09 15:32:00,64.9,51.1,30.15,ENE,64,5.0,10.0,61,0.00,,,0.00,meteohub,2013-10-09 19:32:00,
2013-10-09 15:37:00,65.1,51.3,30.15,East,92,3.0,9.0,61,0.00,,,0.00,meteohub,2013-10-09 19:37:00,
2013-10-09 15:42:00,65.1,51.3,30.15,North,350,1.0,8.0,61,0.00,,,0.00,meteohub,2013-10-09 19:42:00,
2013-10-09 15:47:00,65.5,52.2,30.15,NNE,23,0.0,8.0,62,0.00,,,0.00,meteohub,2013-10-09 19:47:00,
2013-10-09 15:52:00,65.3,51.4,30.15,NE,36,1.0,8.0,61,0.00,,,0.00,meteohub,2013-10-09 19:52:00,
2013-10-09 15:57:00,65.1,51.8,30.15,NE,43,4.0,7.0,62,0.00,,,0.00,meteohub,2013-10-09 19:57:00,
2013-10-09 16:02:00,64.9,51.6,30.15,SE,124,0.0,8.0,62,0.00,,,0.00,meteohub,2013-10-09 20:02:00,
2013-10-09 16:07:00,64.9,52.0,30.15,NNE,26,7.0,8.0,63,0.00,,,0.00,meteohub,2013-10-09 20:07:00,
2013-10-09 16:12:00,64.9,51.6,30.15,NE,52,1.0,8.0,62,0.00,,,0.00,meteohub,2013-10-09 20:12:00,
2013-10-09 16:17:00,64.8,51.8,30.15,NNE,18,1.0,8.0,63,0.00,,,0.00,meteohub,2013-10-09 20:17:00,
2013-10-09 16:22:00,64.8,51.8,30.15,NE,41,0.0,8.0,63,0.00,,,0.00,meteohub,2013-10-09 20:22:00,
2013-10-09 16:27:00,64.9,51.6,30.15,NNE,13,0.0,6.0,62,0.00,,,0.00,meteohub,2013-10-09 20:27:00,
2013-10-09 16:32:00,64.9,52.5,30.15,NNW,343,2.0,6.0,64,0.00,,,0.00,meteohub,2013-10-09 20:32:00,
2013-10-09 16:37:00,64.9,52.0,30.15,ESE,108,0.0,5.0,63,0.00,,,0.00,meteohub,2013-10-09 20:37:00,
2013-10-09 16:42:00,64.9,52.0,30.15,NE,43,2.0,5.0,63,0.00,,,0.00,meteohub,2013-10-09 20:42:00,
2013-10-09 16:47:00,64.8,51.8,30.15,ESE,112,0.0,5.0,63,0.00,,,0.00,meteohub,2013-10-09 20:47:00,
2013-10-09 16:52:00,64.8,51.8,30.14,ENE,77,0.0,5.0,63,0.00,,,0.00,meteohub,2013-10-09 20:52:00,
2013-10-09 16:57:00,64.6,51.6,30.14,NNE,12,0.0,7.0,63,0.00,,,0.00,meteohub,2013-10-09 20:57:00,
2013-10-09 17:02:00,64.6,52.2,30.14,NE,39,1.0,7.0,64,0.00,,,0.00,meteohub,2013-10-09 21:02:00,
2013-10-09 17:07:00,64.6,52.2,30.14,ESE,112,0.0,6.0,64,0.00,,,0.00,meteohub,2013-10-09 21:07:00,
2013-10-09 17:12:00,64.6,52.9,30.14,ESE,120,1.0,4.0,66,0.00,,,0.00,meteohub,2013-10-09 21:12:00,
2013-10-09 17:17:00,64.4,51.6,30.15,SW,229,0.0,4.0,63,0.00,,,0.00,meteohub,2013-10-09 21:17:00,
2013-10-09 17:22:00,64.0,51.6,30.15,WSW,240,0.0,1.0,64,0.00,,,0.00,meteohub,2013-10-09 21:22:00,
2013-10-09 17:27:00,63.7,52.9,30.15,SW,224,0.0,1.0,68,0.00,,,0.00,meteohub,2013-10-09 21:27:00,
2013-10-09 17:32:00,63.3,52.2,30.15,SSW,212,0.0,1.0,67,0.00,,,0.00,meteohub,2013-10-09 21:32:00,
2013-10-09 17:37:00,63.3,51.8,30.15,SSW,193,3.0,3.0,66,0.00,,,0.00,meteohub,2013-10-09 21:37:00,
2013-10-09 17:42:00,63.1,52.9,30.15,WSW,249,0.0,4.0,69,0.00,,,0.00,meteohub,2013-10-09 21:42:00,
2013-10-09 17:47:00,63.0,51.8,30.15,SW,221,0.0,4.0,67,0.00,,,0.00,meteohub,2013-10-09 21:47:00,
2013-10-09 17:52:00,62.6,53.1,30.15,SW,221,0.0,4.0,71,0.00,,,0.00,meteohub,2013-10-09 21:52:00,
2013-10-09 17:57:00,62.2,53.1,30.15,SSW,193,1.0,2.0,72,0.00,,,0.00,meteohub,2013-10-09 21:57:00,
2013-10-09 18:02:00,61.9,51.3,30.15,South,181,1.0,3.0,68,0.00,,,0.00,meteohub,2013-10-09 22:02:00,
2013-10-09 18:07:00,61.7,51.8,30.15,SSW,195,0.0,3.0,70,0.00,,,0.00,meteohub,2013-10-09 22:07:00,
2013-10-09 18:12:00,61.3,51.1,30.15,SSE,148,0.0,3.0,69,0.00,,,0.00,meteohub,2013-10-09 22:12:00,
2013-10-09 18:17:00,61.2,51.6,30.15,SW,228,0.0,3.0,71,0.00,,,0.00,meteohub,2013-10-09 22:17:00,
2013-10-09 18:22:00,60.8,52.2,30.15,SW,228,0.0,3.0,73,0.00,,,0.00,meteohub,2013-10-09 22:22:00,
2013-10-09 18:27:00,60.4,52.5,30.15,SW,228,0.0,2.0,75,0.00,,,0.00,meteohub,2013-10-09 22:27:00,
2013-10-09 18:32:00,59.7,52.2,30.15,SW,228,0.0,1.0,76,0.00,,,0.00,meteohub,2013-10-09 22:32:00,
2013-10-09 18:37:00,59.0,52.5,30.15,SW,228,0.0,1.0,79,0.00,,,0.00,meteohub,2013-10-09 22:37:00,
2013-10-09 18:42:00,58.3,51.8,30.15,SW,228,0.0,0.0,79,0.00,,,0.00,meteohub,2013-10-09 22:42:00,
2013-10-09 18:47:00,57.6,51.4,30.15,SW,228,0.0,0.0,80,0.00,,,0.00,meteohub,2013-10-09 22:47:00,
2013-10-09 18:52:00,57.0,51.3,30.15,SW,228,0.0,0.0,81,0.00,,,0.00,meteohub,2013-10-09 22:52:00,
2013-10-09 18:57:00,56.5,51.1,30.15,SW,228,0.0,0.0,82,0.00,,,0.00,meteohub,2013-10-09 22:57:00,
2013-10-09 19:02:00,55.9,50.9,30.15,SW,229,0.0,0.0,83,0.00,,,0.00,meteohub,2013-10-09 23:02:00,
2013-10-09 19:07:00,55.8,51.1,30.15,SW,228,0.0,0.0,84,0.00,,,0.00,meteohub,2013-10-09 23:07:00,
2013-10-09 19:12:00,55.2,51.1,30.15,SW,228,0.0,0.0,86,0.00,,,0.00,meteohub,2013-10-09 23:12:00,
2013-10-09 19:17:00,54.9,50.7,30.15,SW,228,0.0,0.0,86,0.00,,,0.00,meteohub,2013-10-09 23:17:00,
2013-10-09 19:22:00,54.5,50.7,30.15,SW,228,0.0,0.0,87,0.00,,,0.00,meteohub,2013-10-09 23:22:00,
2013-10-09 19:27:00,54.1,50.7,30.15,SW,229,0.0,0.0,88,0.00,,,0.00,meteohub,2013-10-09 23:27:00,
2013-10-09 19:32:00,53.8,50.4,30.15,SW,228,0.0,0.0,88,0.00,,,0.00,meteohub,2013-10-09 23:32:00,
2013-10-09 19:37:00,53.4,50.2,30.15,SW,228,0.0,0.0,89,0.00,,,0.00,meteohub,2013-10-09 23:37:00,
2013-10-09 19:42:00,53.1,49.8,30.15,SW,228,0.0,0.0,89,0.00,,,0.00,meteohub,2013-10-09 23:42:00,
2013-10-09 19:47:00,52.7,49.8,30.16,SW,228,0.0,0.0,90,0.00,,,0.00,meteohub,2013-10-09 23:47:00,
2013-10-09 19:52:00,52.3,49.5,30.16,SW,228,0.0,0.0,90,0.00,,,0.00,meteohub,2013-10-09 23:52:00,
2013-10-09 19:57:00,52.2,49.6,30.16,SW,228,0.0,0.0,91,0.00,,,0.00,meteohub,2013-10-09 23:57:00,
2013-10-09 20:02:00,52.0,49.5,30.16,SW,228,0.0,0.0,91,0.00,,,0.00,meteohub,2013-10-10 00:02:00,
2013-10-09 20:07:00,51.6,49.1,30.16,SW,228,0.0,0.0,91,0.00,,,0.00,meteohub,2013-10-10 00:07:00,
2013-10-09 20:12:00,51.3,49.1,30.16,SW,228,0.0,0.0,92,0.00,,,0.00,meteohub,2013-10-10 00:12:00,
2013-10-09 20:17:00,51.1,49.1,30.17,SW,228,0.0,0.0,93,0.00,,,0.00,meteohub,2013-10-10 00:17:00,
2013-10-09 20:22:00,50.9,48.9,30.17,SW,228,0.0,0.0,93,0.00,,,0.00,meteohub,2013-10-10 00:22:00,
2013-10-09 20:27:00,50.7,48.7,30.17,SW,228,0.0,0.0,93,0.00,,,0.00,meteohub,2013-10-10 00:27:00,
2013-10-09 20:32:00,50.5,48.6,30.17,SW,228,0.0,0.0,93,0.00,,,0.00,meteohub,2013-10-10 00:32:00,
2013-10-09 20:37:00,50.4,48.4,30.17,SW,228,0.0,0.0,93,0.00,,,0.00,meteohub,2013-10-10 00:37:00,
2013-10-09 20:42:00,50.2,48.2,30.17,SW,228,0.0,0.0,93,0.00,,,0.00,meteohub,2013-10-10 00:42:00,
2013-10-09 20:47:00,49.8,48.2,30.17,SW,228,0.0,0.0,94,0.00,,,0.00,meteohub,2013-10-10 00:47:00,
2013-10-09 20:52:00,49.8,48.2,30.17,SW,228,0.0,0.0,94,0.00,,,0.00,meteohub,2013-10-10 00:52:00,
2013-10-09 20:57:00,49.8,48.2,30.17,SW,228,0.0,0.0,94,0.00,,,0.00,meteohub,2013-10-10 00:57:00,
2013-10-09 21:02:00,49.6,48.2,30.17,SW,228,0.0,0.0,95,0.00,,,0.00,meteohub,2013-10-10 01:02:00,
2013-10-09 21:07:00,49.6,48.2,30.17,SW,228,0.0,0.0,95,0.00,,,0.00,meteohub,2013-10-10 01:07:00,
2013-10-09 21:12:00,49.6,48.2,30.17,SW,228,0.0,0.0,95,0.00,,,0.00,meteohub,2013-10-10 01:12:00,
2013-10-09 21:17:00,49.6,48.2,30.17,SW,228,0.0,0.0,95,0.00,,,0.00,meteohub,2013-10-10 01:17:00,
2013-10-09 21:22:00,49.6,48.2,30.17,SW,228,0.0,0.0,95,0.00,,,0.00,meteohub,2013-10-10 01:22:00,
2013-10-09 21:27:00,49.6,48.6,30.17,SW,228,0.0,0.0,96,0.00,,,0.00,meteohub,2013-10-10 01:27:00,
2013-10-09 21:32:00,49.6,48.2,30.17,SW,228,0.0,0.0,95,0.00,,,0.00,meteohub,2013-10-10 01:32:00,
2013-10-09 21:37:00,49.5,48.0,30.17,SW,228,0.0,0.0,95,0.00,,,0.00,meteohub,2013-10-10 01:37:00,
2013-10-09 21:42:00,49.3,47.8,30.17,SW,228,0.0,0.0,95,0.00,,,0.00,meteohub,2013-10-10 01:42:00,
2013-10-09 21:47:00,48.9,47.5,30.17,SW,228,0.0,0.0,95,0.00,,,0.00,meteohub,2013-10-10 01:47:00,
2013-10-09 21:52:00,48.7,47.3,30.18,SW,228,0.0,0.0,95,0.00,,,0.00,meteohub,2013-10-10 01:52:00,
2013-10-09 21:57:00,48.7,47.7,30.18,SW,228,0.0,0.0,96,0.00,,,0.00,meteohub,2013-10-10 01:57:00,
2013-10-09 22:02:00,48.7,47.7,30.18,SW,228,0.0,0.0,96,0.00,,,0.00,meteohub,2013-10-10 02:02:00,
2013-10-09 22:07:00,48.7,47.7,30.18,SW,228,0.0,0.0,96,0.00,,,0.00,meteohub,2013-10-10 02:07:00,
2013-10-09 22:12:00,48.6,47.5,30.18,SW,228,0.0,0.0,96,0.00,,,0.00,meteohub,2013-10-10 02:12:00,
2013-10-09 22:17:00,48.6,47.1,30.18,SW,228,0.0,0.0,95,0.00,,,0.00,meteohub,2013-10-10 02:17:00,
2013-10-09 22:22:00,48.4,46.9,30.18,SW,228,0.0,0.0,95,0.00,,,0.00,meteohub,2013-10-10 02:22:00,
2013-10-09 22:27:00,48.0,46.6,30.18,SW,228,0.0,0.0,95,0.00,,,0.00,meteohub,2013-10-10 02:27:00,
2013-10-09 22:32:00,48.0,46.6,30.18,SW,228,0.0,0.0,95,0.00,,,0.00,meteohub,2013-10-10 02:32:00,
2013-10-09 22:37:00,47.8,46.4,30.18,SW,228,0.0,0.0,95,0.00,,,0.00,meteohub,2013-10-10 02:37:00,
2013-10-09 22:42:00,47.7,46.2,30.18,SW,228,0.0,0.0,95,0.00,,,0.00,meteohub,2013-10-10 02:42:00,
2013-10-09 22:47:00,47.5,46.0,30.18,SW,228,0.0,0.0,95,0.00,,,0.00,meteohub,2013-10-10 02:47:00,
2013-10-09 22:52:00,47.3,46.2,30.18,SW,228,0.0,0.0,96,0.00,,,0.00,meteohub,2013-10-10 02:52:00,
2013-10-09 22:57:00,47.1,45.7,30.18,SW,228,0.0,0.0,95,0.00,,,0.00,meteohub,2013-10-10 02:57:00,
2013-10-09 23:02:00,46.9,45.5,30.18,SW,228,0.0,0.0,95,0.00,,,0.00,meteohub,2013-10-10 03:02:00,
2013-10-09 23:07:00,46.8,45.3,30.18,SW,228,0.0,0.0,95,0.00,,,0.00,meteohub,2013-10-10 03:07:00,
2013-10-09 23:12:00,46.6,45.1,30.18,SW,228,0.0,0.0,95,0.00,,,0.00,meteohub,2013-10-10 03:12:00,
2013-10-09 23:17:00,46.4,45.0,30.18,SW,228,0.0,0.0,95,0.00,,,0.00,meteohub,2013-10-10 03:17:00,
2013-10-09 23:22:00,46.4,45.3,30.18,SW,228,0.0,0.0,96,0.00,,,0.00,meteohub,2013-10-10 03:22:00,
2013-10-09 23:27:00,46.2,45.1,30.18,SW,228,0.0,0.0,96,0.00,,,0.00,meteohub,2013-10-10 03:27:00,
2013-10-09 23:32:00,46.2,45.1,30.18,SW,228,0.0,0.0,96,0.00,,,0.00,meteohub,2013-10-10 03:32:00,
2013-10-09 23:37:00,46.2,45.1,30.18,SW,228,0.0,0.0,96,0.00,,,0.00,meteohub,2013-10-10 03:37:00,
2013-10-09 23:42:00,46.2,45.1,30.18,SW,228,0.0,0.0,96,0.00,,,0.00,meteohub,2013-10-10 03:42:00,
2013-10-09 23:47:00,46.2,45.1,30.17,SW,228,0.0,0.0,96,0.00,,,0.00,meteohub,2013-10-10 03:47:00,
2013-10-09 23:52:00,46.2,45.1,30.17,SW,228,0.0,0.0,96,0.00,,,0.00,meteohub,2013-10-10 03:52:00,
2013-10-09 23:57:00,46.2,45.1,30.17,SW,228,0.0,0.0,96,0.00,,,0.00,meteohub,2013-10-10 03:57:00,